Tracking 30922 objects as of 2-Jul-2025
HD Live streaming from Space Station
objects crossing your sky now

ATLAS CENTAUR DEB

Track ATLAS CENTAUR DEB now!


NORAD ID: 25253
Int'l Code: 1978-068C
Perigee: 815.9 km
Apogee: 35,634.2 km
Inclination: 21.2 °
Period: 639.8 minutes
Semi major axis: 24596 km
RCS: 0.1092 m2 (medium)
Launch date: June 29, 1978
Source: United States (US)
Launch site: AIR FORCE EASTERN TEST RANGE (AFETR)

Note: This is SATELLITE DEBRIS
Your satellite tracking list
STARLINK-3112
Track 1 satellite(s)




NASA's NSSDC Master Catalog

Two Line Element Set (TLE):
1 25253U 78068C   25181.48918903  .00000037  00000-0  28801-2 0  9996
2 25253  21.2275 157.2193 7078027 257.8667 326.1742  2.25063159230045
Source of the keplerian elements: AFSPC